Powrót do katalogu

ONEWEB-0081

AktywnyŁącznośćPO
NORAD 45429·PAYLOAD·🇬🇧 United Kingdom

Wystrzelony Mar 21, 2020 z Baikonur Cosmodrome

Loading…

Następne Przeloty (najbliższe 24 godziny)

TLE

ŚwieżeSource: CelesTrak SupGP

Epoka: Sep 14, 2026, 21:31 UTC

1 45429C 20020F   26257.89669398 -.00002595  00000+0 -73290-2 0  2570
2 45429  87.8979   3.2341 0001979 106.0706 356.0119 13.11422861    18

Śledź ONEWEB-0081 w czasie rzeczywistym z AllMySat

Download on the App Store